Terminal Aerodrome Forecast
Issued by NWS

Home | Current Version | Previous Version | Text Only | Print | Product List | Glossary On
Versions: 1 2 3 4 5 6 7 8 9 10 11 12 13 14 15 16 17 18 19 20 21 22 23 24 25 26 27 28 29 30 31 32 33 34 35 36 37 38 39 40 41 42 43 44 45 46 47 48 49 50
043
FTUS46 KEKA 241120
TAFACV
TAF
KACV 241120Z 2412/2512 11004KT P6SM SCT007
      TEMPO 2414/2416 BKN007
     FM241700 31007KT P6SM SKC
     FM242000 31010G17KT P6SM SKC
     FM250100 33009KT P6SM SKC
     FM250700 13003KT P6SM SCT005=

USA.gov is the U.S. government's official web portal to all federal, state and local government web resources and services.